TIME,DELAY(SENSOR),PRES,OXYGEN,RAWTEMP,T(OPTODE),TCPHASE,FLUOR,BETA(BETA700),BETA(BETA412),BETA(BETA440),CDOM,C(CSC),ED(ED412.40),ED(ED444.00),ED(ED489.70),ED(ED554.30),LU(LU411.80),LU(LU443.40),LU(LU489.60),LU(LU554.10),COMP,TILTX,TILTY,CHECK
1361936606,5811,886.5800170898438000,44.4062881469726560,659.2979125976562000,4.6510868072509770,54.3339195251464840,52,100,89,79,80,14895,2147757650,2147424621,2148007405,2147875218,2147636827,2147061220,2148260809,2147199552,325,4,13,19992
1361940202,5807,976.7899780273438000,46.7837181091308600,666.4448852539062000,4.4155640602111820,54.0791893005371100,54,98,84,79,81,14895,2147756955,2147423378,2148010221,2147874706,2147640612,2147061787,2148258797,2147199277,683,4,13,4435
1361943802,5807,978.1099853515625000,46.9637298583984400,668.2037963867188000,4.3575148582458500,54.0745887756347660,52,100,87,78,81,14897,2147753810,2147422829,2148007433,2147874057,2147640283,2147060260,2148259913,2147194486,471,4,13,64936
1361947402,5807,979.3099975585938000,47.0930595397949200,668.5787963867188000,4.3451328277587890,54.0620994567871100,52,100,86,79,81,14892,2147758857,2147421833,2148010285,2147874230,2147640484,2147056749,2148255899,2147194889,168,4,14,417
1361951002,5806,987.0800170898438000,47.2122306823730500,668.9807739257812000,4.3318600654602050,54.0484008789062500,53,97,87,79,80,14894,2147756827,2147422235,2148005156,2147875565,2147639067,2147058825,2148260635,2147196132,3200,4,13,59885
1361954602,5811,982.9500122070312000,47.9294509887695300,670.5748291015625000,4.2792091369628910,53.9643211364746100,52,99,87,79,80,14897,2147761984,2147422555,2148007597,2147876461,2147640009,2147057664,2148258550,2147198939,3069,4,14,58141
1361958202,5811,982.6900024414062000,48.0896606445312500,671.0045776367188000,4.2650051116943360,53.9459495544433600,52,96,85,79,81,14894,2147757659,2147425060,2148005275,2147874029,2147641170,2147057088,2148259428,2147197110,187,4,13,17347
1361961802,5809,984.2800292968750000,48.0023002624511700,671.0894775390625000,4.2621989250183105,53.9594802856445300,51,100,84,78,81,14894,2147757458,2147422217,2148011876,2147873307,2147639826,2147055561,2148262281,2147197284,11,4,13,24437
1361965402,5809,981.1699829101562000,48.1355590820312500,671.7468261718750000,4.2404789924621580,53.9513092041015600,52,99,88,79,79,14895,2147760539,2147424740,2148011840,2147873764,2147641581,2147058358,2148254107,2147198793,2989,4,13,23475
1361969002,5806,977.2700195312500000,48.3605308532714840,672.0347290039062000,4.2309589385986330,53.9260292053222660,52,99,84,79,80,14894,2147757796,2147421778,2148011062,2147872292,2147639506,2147060754,2148256905,2147198400,3593,4,14,64121
1361972602,5808,977.1199951171875000,48.8172988891601560,673.6260986328125000,4.1783390045166020,53.8804016113281250,53,99,88,79,81,14896,2147758509,2147423424,2148009801,2147874523,2147641490,2147058203,2148257088,2147196699,3375,4,13,36922
1361976202,5809,991.5300292968750000,49.3967704772949200,673.6074218750000000,4.1789569854736330,53.7964897155761700,52,98,86,79,80,14894,2147759561,2147424740,2148008073,2147872777,2147646244,2147056045,2148260498,2147197796,3036,4,13,62454
1361979802,5809,992.3200073242188000,48.7281188964843750,671.7199707031250000,4.2413620948791500,53.8723297119140600,52,100,88,79,81,14893,2147757238,2147422226,2148008813,2147875812,2147638692,2147051465,2148258505,2147196946,3561,4,13,60919
1361983402,5810,985.0300292968750000,48.3113403320312500,672.5864868164062000,4.2127170562744140,53.9384803771972660,52,98,90,79,80,14895,2147757924,2147422409,2148010194,2147872521,2147641472,2147059940,2148258797,2147197101,3395,4,13,61018
1361987002,5807,989.2000122070312000,48.3209800720214840,671.9047241210938000,4.2352561950683590,53.9279289245605500,53,99,88,80,80,14894,2147757202,2147424978,2148010596,2147875392,2147641124,2147053906,2148264210,2147197732,3476,4,13,59511
1361990602,5807,987.7000122070312000,48.4237594604492200,672.7011718750000000,4.2089247703552250,53.9233283996582000,52,101,87,79,80,14892,2147758555,2147422336,2148009974,2147872896,2147639734,2147054930,2148263734,2147194176,222,4,13,20715
1361994202,5807,994.0000000000000000,48.1115608215332000,671.4647827148438000,4.2497959136962890,53.9535789489746100,53,104,85,78,80,14896,2147757449,2147421467,2148008996,2147876342,2147639094,2147056329,2148259236,2147199661,154,4,13,20229
1361997802,5808,993.9000244140625000,47.5842895507812500,671.3867187500000000,4.2523798942565920,54.0247497558593750,52,97,83,90,81,14883,2147760566,2147420781,2148008676,2147875876,2147635794,2147058989,2148263213,2147200219,657,4,13,41903
1362001402,5809,1000.9400024414062000,47.4231986999511700,671.3267211914062000,4.2543621063232420,54.0454597473144500,53,99,87,79,80,14883,2147757293,2147422793,2148011254,2147875300,2147643062,2147059757,2148255104,2147196781,747,4,13,52583
1362005002,5809,995.4400024414062000,47.1408004760742200,670.7832031250000000,4.2723221778869630,54.0797080993652340,53,100,85,79,80,14883,2147758281,2147421888,2148007195,2147876425,2147642166,2147054939,2148256621,2147195702,586,4,13,57922
1362008602,5809,993.2100219726562000,47.3936195373535160,671.5405273437500000,4.2472929954528810,54.0546417236328100,52,110,86,79,80,14877,2147757019,2147424146,2148010048,2147877010,2147638957,2147053147,2148259702,2147195977,221,4,13,56959
1362012202,5809,996.0700073242188000,48.5456008911132800,672.1079101562500000,4.2285399436950680,53.8997116088867200,52,98,86,79,80,14881,2147757924,2147425554,2148010678,2147875273,2147639643,2147058724,2148260589,2147200246,148,4,13,56546
1362015802,5811,997.4099731445312000,47.2518615722656250,670.9901733398438000,4.2654819488525390,54.0663604736328100,53,97,85,79,80,14878,2147756105,2147423122,2148011867,2147875812,2147644809,2147061330,2148260013,2147198518,83,4,13,42540
1362019402,5808,995.0599975585938000,47.6566390991210940,671.3391113281250000,4.2539539337158200,54.0112686157226560,53,98,89,79,80,14875,2147755702,2147422665,2148011748,2147875958,2147639798,2147063241,2148261458,2147197622,388,4,13,32229
1362023002,5806,989.2399902343750000,47.6592292785644500,671.9780883789062000,4.2328319549560550,54.0213813781738300,52,102,87,77,80,14878,2147756251,2147422976,2148012955,2147876763,2147641581,2147055213,2148262125,2147198829,10,4,13,35406
1362026602,5809,998.8300170898438000,48.5600204467773440,672.4935302734375000,4.2157921791076660,53.9026794433593750,53,98,85,79,80,14878,2147758491,2147423305,2148010112,2147874752,2147641444,2147060982,2148258614,2147198738,176,4,13,32880
1362030202,5809,1001.2399902343750000,48.0135993957519500,671.3126831054688000,4.2548260688781740,53.9626312255859400,52,98,87,79,82,14876,2147753901,2147423405,2148008329,2147872621,2147638619,2147056164,2148264265,2147196269,2981,4,13,57385
1362033802,5805,998.9899902343750000,47.6763992309570300,671.4390869140625000,4.2506451606750490,54.0134391784668000,53,99,86,78,80,14877,2147757750,2147423360,2148010843,2147875136,2147639725,2147053458,2148262134,2147196425,3007,4,14,36323
1362037402,5809,1004.7299804687500000,47.2159996032714840,671.0217285156250000,4.2644419670104980,54.0725898742675800,52,99,88,79,80,14875,2147759277,2147422107,2148009069,2147874834,2147640265,2147059483,2148263314,2147198628,301,4,13,49159
1362041002,5808,995.2600097656250000,47.2737007141113300,671.2874755859375000,4.2556591033935550,54.0688591003418000,53,103,89,79,80,14876,2147758226,2147424822,2148009042,2147873398,2147642358,2147055049,2148262180,2147201764,230,4,13,54067
1362044602,5808,994.7800292968750000,47.5211296081543000,671.4218750000000000,4.2512130737304690,54.0370903015136700,51,99,89,79,80,14871,2147759844,2147426313,2148011547,2147872859,2147638628,2147056320,2148263835,2147198262,3194,4,13,40334
1362048202,5812,990.1900024414062000,47.7670097351074200,671.7999267578125000,4.2387242317199710,54.0069885253906250,52,99,87,79,80,14870,2147760237,2147421952,2148010322,2147875949,2147638162,2147057417,2148261650,2147197668,3178,4,13,47827
1362051802,5806,988.5499877929688000,47.8789710998535160,672.7996215820312000,4.2056708335876465,53.9959487915039060,51,99,92,78,79,14871,2147762898,2147425728,2148007323,2147870921,2147639670,2147056365,2148261211,2147199341,3566,4,13,63999
1362055402,5809,989.4899902343750000,47.9371109008789060,672.2349853515625000,4.2243390083312990,53.9879989624023440,53,99,87,79,80,14874,2147757897,2147424603,2148010797,2147875885,2147638436,2147054281,2148264493,2147200694,3212,4,13,58711
1362059002,5811,983.7100219726562000,48.8761405944824200,674.2130737304688000,4.1589198112487790,53.8778190612793000,52,99,88,79,79,14873,2147761280,2147425298,2148010212,2147873197,2147638738,2147055076,2148261878,2147197686,47,4,13,17718
1362062602,5804,986.7500000000000000,48.8543701171875000,674.3887939453125000,4.1531109809875490,53.8827590942382800,51,97,86,78,81,14874,2147760932,2147420516,2148009088,2147875053,2147639808,2147058578,2148262994,2147198784,243,4,13,59619
1362066202,5812,980.5200195312500000,48.8742713928222660,675.3275146484375000,4.1220488548278810,53.8951187133789060,53,99,86,78,81,14873,2147759369,2147423286,2148010267,2147875300,2147640420,2147057590,2148263954,2147199396,3589,4,13,17997
1362069802,5810,993.9799804687500000,49.3444290161132800,674.3270874023438000,4.1551489830017090,53.8149490356445300,52,99,86,79,80,14872,2147757714,2147423634,2148008585,2147873673,2147641572,2147058322,2148263597,2147196470,219,4,13,12278
1362073402,5811,1010.0399780273438000,48.1892204284668000,671.5759887695312000,4.2461199760437010,53.9401397705078100,53,100,86,79,80,14870,2147759378,2147424576,2148010048,2147872813,2147641993,2147066742,2148264466,2147198884,626,4,13,34879
1362077002,5808,1004.7299804687500000,47.4115905761718750,671.3233032226562000,4.2544751167297360,54.0511016845703100,52,98,87,80,80,14745,2147759753,2147424603,2148009334,2147871625,2147640777,2147056045,2148263789,2147197933,3420,4,13,3083
1362080602,5808,1002.6799926757812000,47.1038589477539060,671.8134765625000000,4.2382721900939940,54.1010284423828100,53,99,90,80,79,14743,2147758948,2147424182,2148009453,2147875666,2147641325,2147061476,2148263542,2147196544,375,4,13,34855
1362082256,5809,1008.6199951171875000,47.8069000244140600,671.2697753906250000,4.2562432289123535,53.9891586303710940,52,99,86,79,81,14881,2147755666,2147424457,2148010605,2147873106,2147641682,2147060644,2148258230,2147199369,371,4,13,53563
